This is the latest recevied weather packets stored in our database for station/object NR0A-4. If no packets are shown the sender has not sent any weather packets the latest 10 day(s).
| Time | Temp. | Humidity | Pressure | Rain* | Wind** | Luminosity | Snow |
|---|---|---|---|---|---|---|---|
| 1788371704 | 30.56° C | 56% | 1010.7 hPa | 0 mm | - | 737 W/m² | - |
| 1788371404 | 30.56° C | 56% | 1010.9 hPa | 0 mm | - | 731 W/m² | - |
| 1788371104 | 30° C | 62% | 1010.9 hPa | 0 mm | - | 729 W/m² | - |
| 1788370804 | 30° C | 59% | 1010.9 hPa | 0 mm | - | 724 W/m² | - |
| 1788370504 | 30° C | 59% | 1011 hPa | 0 mm | - | 721 W/m² | - |
| 1788370204 | 30° C | 60% | 1011 hPa | 0 mm | - | 717 W/m² | - |
| 1788369903 | 30° C | 61% | 1011 hPa | 0 mm | - | 715 W/m² | - |
| 1788369603 | 30° C | 59% | 1011.1 hPa | 0 mm | - | 708 W/m² | - |
| 1788369327 | 29.44° C | 60% | 1011.1 hPa | 0 mm | - | 701 W/m² | - |
| 1788369004 | 29.44° C | 62% | 1011.1 hPa | 0 mm | - | 700 W/m² | - |
| 1788368704 | 29.44° C | 62% | 1011.1 hPa | 0 mm | - | 694 W/m² | - |
| 1788368404 | 29.44° C | 62% | 1011.1 hPa | 0 mm | - | 689 W/m² | - |
| 1788368104 | 28.89° C | 63% | 1011 hPa | 0 mm | - | 680 W/m² | - |
| 1788367804 | 28.89° C | 62% | 1011.1 hPa | 0 mm | - | 671 W/m² | - |
| 1788367504 | 28.33° C | 63% | 1011.1 hPa | 0 mm | - | 666 W/m² | - |
| 1788367204 | 28.33° C | 62% | 1011.1 hPa | 0 mm | - | 659 W/m² | - |
| 1788366903 | 28.33° C | 63% | 1011.2 hPa | 0 mm | - | 652 W/m² | - |
| 1788366604 | 27.78° C | 65% | 1011.1 hPa | 0 mm | - | 642 W/m² | - |
| 1788366304 | 27.78° C | 61% | 1011.2 hPa | 0 mm | - | 631 W/m² | - |
| 1788366004 | 27.78° C | 65% | 1011 hPa | 0 mm | - | 619 W/m² | - |
| 1788365704 | 27.22° C | 63% | 1011.1 hPa | 0 mm | - | 615 W/m² | - |
| 1788365404 | 27.22° C | 63% | 1011.2 hPa | 0 mm | - | 608 W/m² | - |
| 1788365103 | 27.22° C | 65% | 1011.1 hPa | 0 mm | - | 594 W/m² | - |
| 1788364803 | 27.22° C | 64% | 1011.2 hPa | 0 mm | - | 584 W/m² | - |
| 1788364504 | 26.67° C | 66% | 1011.1 hPa | 0 mm | - | 578 W/m² | - |
* Rain latest hour (hover to see other rain measurements)
** Current wind speed in m/s (hover to see current wind gust speed)